Wind_Speed
42 48 50 52 54 53 51 51 50 47 47 53 56 52 40 36 42 38 39 43 46 43 42 41 42 37 36 34 32 30 29 30 30 30 31 32 33 35 37 39 42 45 46
45 46 48 52 54 55 55 53 53 51 49 47 49 54 54 40 47 44 37 44 48 43 43 43 42 39 37 35 34 32 31 32 31 30 32 34 34 36 38 41 43 44 43
43 48 50 49 53 56 56 56 55 54 52 51 47 42 49 56 55 46 42 39 48 45 44 44 43 40 38 37 35 33 33 32 32 31 33 34 36 36 37 39 41 43 43
52 46 50 53 51 53 57 56 57 56 54 53 52 47 43 49 54 53 43 42 47 46 45 45 43 41 39 38 36 34 34 32 31 31 31 32 33 33 34 36 40 42 40
57 54 52 54 54 53 54 56 56 58 56 54 54 49 46 42 54 54 55 47 46 46 45 44 43 41 40 39 38 36 35 32 31 30 30 30 29 30 32 36 40 41 38
60 58 56 59 58 54 54 55 54 56 57 56 55 50 48 42 52 53 51 48 49 45 45 42 42 41 41 40 39 37 35 33 32 31 29 28 27 29 31 35 38 37 37
62 61 60 62 60 59 56 55 53 53 55 55 56 55 48 45 46 52 47 43 51 45 44 42 42 41 41 41 39 37 35 34 32 30 29 29 28 28 33 36 36 37 35
65 63 63 64 62 58 60 57 57 51 51 51 56 56 49 46 46 49 47 48 51 48 46 42 42 41 42 41 39 37 36 35 32 30 30 29 28 28 33 35 34 34 34
69 68 70 70 69 63 59 59 60 55 51 50 52 54 53 49 47 48 48 52 53 48 46 44 43 43 42 41 39 38 37 35 32 31 30 29 28 29 32 33 34 35 35
74 71 72 75 75 68 64 59 58 59 54 49 50 53 55 52 48 49 50 56 56 51 48 46 45 44 42 41 40 39 37 35 33 32 31 29 27 27 30 31 34 34 34
78 77 74 74 72 78 70 63 59 58 56 54 50 51 55 56 50 51 52 60 54 53 49 48 46 45 43 42 40 39 36 35 34 33 31 30 29 28 30 31 34 32 30
81 81 79 76 74 70 73 68 62 59 57 55 53 50 54 55 53 50 54 61 54 53 52 49 47 45 43 41 39 37 36 35 35 34 33 30 31 29 29 31 32 30 27
77 79 79 77 76 73 75 77 73 67 63 56 54 53 49 55 57 52 55 58 56 52 53 51 49 45 42 39 38 37 37 36 36 35 33 33 30 27 29 31 30 28 25
68 77 80 77 77 76 71 74 73 71 70 60 56 54 51 51 50 53 53 55 57 53 54 54 49 45 43 41 39 37 37 37 36 36 35 34 32 26 29 31 30 27 24
63 66 72 80 80 76 74 71 73 72 76 65 59 56 54 51 49 53 49 55 55 49 51 54 52 47 43 41 40 39 38 39 39 37 36 36 28 26 29 31 29 27 25
57 58 59 62 73 80 75 72 73 74 77 73 64 58 53 54 51 50 47 58 54 59 56 55 54 51 48 46 43 42 41 40 39 39 38 32 26 27 29 31 29 27 26
50 51 49 52 57 74 78 73 73 75 70 71 66 58 54 56 51 52 48 52 60 56 60 62 60 57 53 49 46 44 42 41 41 42 37 28 28 25 28 28 27 26 27
49 49 48 48 51 61 75 73 72 72 70 69 66 61 56 55 59 50 52 51 56 60 62 59 56 54 52 49 47 46 45 45 44 38 34 30 26 21 22 22 23 25 27
53 51 50 49 49 53 67 71 71 72 70 67 64 61 57 54 56 54 50 45 50 54 60 60 56 54 52 51 50 49 47 47 44 37 30 32 29 24 21 21 22 25 26
49 53 53 53 50 46 57 67 71 73 70 65 62 59 59 54 55 55 51 45 39 54 55 56 56 55 55 55 55 53 52 49 40 32 32 30 37 32 27 26 25 24 26
46 42 48 52 44 44 53 68 70 72 69 65 61 59 59 52 51 52 53 56 48 39 47 55 55 55 56 56 56 54 50 46 36 29 30 33 37 31 27 29 28 27 27
43 41 42 41 40 43 53 69 70 70 67 63 59 60 58 55 47 46 47 47 43 44 46 49 54 56 54 51 49 48 47 40 33 33 34 37 35 34 35 34 31 29 29
34 36 39 38 39 42 56 68 68 67 65 60 58 56 55 52 46 44 43 44 43 39 43 48 48 47 47 46 49 46 43 43 44 41 40 40 39 38 37 34 33 33 31
32 33 32 32 34 42 60 66 65 63 61 57 55 54 52 47 44 43 39 33 44 42 42 43 49 49 47 42 47 51 47 46 44 44 44 43 44 43 39 37 37 35 30
21 20 22 26 32 47 57 61 61 59 55 53 54 54 51 46 45 44 37 38 33 34 38 38 40 45 45 40 39 50 47 45 45 47 47 47 45 40 39 39 35 32 30
25 27 28 31 34 42 49 54 53 52 51 52 53 53 50 47 45 46 43 42 41 39 38 38 36 36 34 35 40 44 50 50 49 49 49 46 41 39 41 37 34 31 30
Wind_Direction
253 252 251 252 246 241 241 244 248 249 247 246 246 239 235 256 239 237 241 238 237 234 235 234 239 239 239 238 240 244 249 255 259 262 268 274 279 287 295 303 310 314 320
254 255 253 250 251 249 244 242 245 248 250 250 251 249 237 236 242 239 241 242 239 230 235 233 236 239 239 238 239 243 248 254 260 262 265 272 280 289 297 304 309 314 319
264 256 253 253 250 249 249 246 243 246 249 250 250 254 245 237 241 234 240 243 242 228 234 235 236 239 239 239 240 243 249 254 260 265 269 274 281 291 298 305 310 314 316
264 266 256 252 251 249 248 247 246 245 247 248 249 250 249 241 240 236 234 237 242 225 232 234 235 239 239 239 240 243 247 252 259 264 270 277 284 292 300 306 308 311 315
260 261 258 253 249 249 249 246 245 245 244 246 246 247 249 246 240 239 237 239 240 223 231 232 235 238 239 240 240 242 246 251 257 263 269 276 286 294 299 303 305 309 313
258 258 256 251 244 243 245 247 245 244 244 243 244 244 246 245 239 235 238 238 228 223 229 231 235 239 240 240 241 243 246 250 255 263 271 278 285 290 295 301 307 311 313
253 252 250 248 245 238 241 244 244 244 243 242 241 243 242 245 240 239 234 236 218 221 228 231 237 240 241 241 242 244 246 251 256 262 270 277 282 288 293 308 307 311 311
250 249 247 245 243 241 239 240 242 241 241 242 240 238 238 240 236 237 231 222 217 221 224 230 237 240 242 242 243 245 248 251 256 261 267 273 280 284 297 306 306 310 309
248 245 244 244 247 242 237 234 238 238 239 239 239 239 233 236 240 234 233 219 220 221 225 229 235 239 241 242 243 245 248 251 256 260 265 271 277 286 297 301 302 306 306
248 245 241 242 242 241 240 235 233 235 236 234 236 237 234 230 233 232 229 217 226 220 224 228 233 237 240 242 243 245 247 251 255 259 263 268 275 288 298 297 300 304 305
249 248 245 242 242 240 234 235 234 232 233 234 231 236 233 228 230 234 229 218 227 222 226 227 231 235 239 241 243 245 248 250 253 257 261 266 272 287 294 294 299 303 305
249 248 248 245 243 239 231 233 235 235 232 234 230 231 235 232 227 230 231 224 223 224 228 227 230 235 238 242 244 245 248 249 251 255 259 264 272 284 287 291 298 300 302
251 250 248 245 243 240 235 234 238 235 234 230 235 227 229 233 230 229 231 230 222 226 228 229 230 233 238 242 244 245 247 248 250 253 257 263 271 280 281 289 297 295 299
257 253 250 247 244 240 237 234 234 233 233 230 229 236 224 230 233 229 226 231 226 222 229 229 230 232 235 239 242 244 246 247 249 252 256 262 270 275 279 285 292 293 295
260 257 254 250 245 240 237 234 231 230 231 231 231 233 229 224 230 228 229 226 226 220 226 224 227 229 233 236 238 240 241 242 245 250 254 261 267 271 278 284 287 293 293
264 260 254 248 246 242 235 232 230 228 229 232 232 226 232 221 224 226 228 222 223 222 219 221 222 224 229 233 236 237 240 243 245 248 253 258 264 273 278 286 288 290 288
261 258 254 247 239 239 234 229 227 226 223 227 227 219 224 228 217 227 234 229 225 224 224 224 226 228 230 232 234 237 240 242 246 248 251 252 259 270 276 286 291 291 282
259 257 253 248 244 235 232 227 224 224 219 221 222 216 220 226 220 219 226 230 228 230 230 225 225 226 229 232 235 238 240 242 244 246 244 249 252 258 273 288 296 297 281
254 254 253 250 249 239 227 222 219 219 217 216 219 214 217 221 226 219 217 225 227 231 232 227 229 232 234 236 237 239 241 243 244 236 240 249 242 251 268 287 299 307 288
256 253 251 250 251 244 226 213 213 214 214 213 214 213 213 218 223 225 221 225 227 229 231 228 228 230 231 233 236 238 240 242 243 230 243 250 248 251 262 275 285 299 299
251 254 254 251 250 238 222 204 206 209 210 210 209 208 210 216 219 220 224 229 231 229 225 229 226 227 230 233 235 236 237 239 227 232 243 251 248 249 260 272 279 287 294
250 249 250 245 241 229 214 197 200 203 206 207 205 206 207 212 219 215 220 224 223 221 223 226 232 232 229 231 232 232 232 225 227 231 250 247 247 259 265 269 273 279 288
247 247 246 243 236 216 202 190 194 197 202 204 204 204 205 211 215 215 219 223 222 226 227 225 225 228 230 234 233 221 222 229 231 233 237 241 250 255 261 265 270 276 280
236 234 234 231 217 202 191 185 189 194 199 200 202 201 202 207 212 214 213 215 216 221 225 229 228 225 225 226 229 217 224 228 231 235 238 244 250 258 258 260 269 272 273
215 208 208 196 184 185 182 182 187 192 196 198 199 201 203 205 208 204 212 222 222 223 223 224 223 224 229 228 222 221 228 230 234 238 242 245 249 251 256 263 266 266 264
142 139 141 146 162 174 178 182 187 191 194 198 200 203 205 205 208 214 220 226 231 233 232 227 226 227 228 223 223 224 228 234 237 240 241 246 246 248 255 259 261 261 261
Height
5614 5617 5621 5623 5625 5629 5632 5636 5640 5644 5648 5652 5656 5663 5668 5673 5677 5681 5686 5691 5696 5701 5705 5710 5715 5717 5720 5723 5725 5727 5729 5731 5732 5732 5733 5732 5732 5731 5729 5726 5722 5716 5711
5604 5606 5609 5612 5615 5617 5620 5625 5629 5633 5637 5641 5645 5650 5657 5661 5667 5672 5676 5681 5686 5691 5696 5701 5706 5709 5712 5715 5717 5720 5722 5724 5725 5726 5726 5726 5726 5725 5723 5720 5716 5711 5706
5589 5593 5597 5600 5602 5606 5608 5612 5617 5621 5626 5630 5634 5639 5643 5649 5656 5661 5666 5671 5676 5682 5687 5693 5697 5701 5704 5707 5710 5713 5715 5717 5718 5719 5720 5720 5720 5720 5717 5714 5710 5705 5700
5574 5579 5583 5587 5590 5593 5596 5600 5604 5609 5614 5618 5623 5628 5632 5637 5643 5650 5655 5660 5665 5671 5678 5683 5688 5692 5696 5699 5702 5705 5708 5710 5711 5712 5713 5714 5714 5713 5711 5708 5704 5699 5694
5558 5562 5567 5572 5577 5580 5583 5586 5591 5595 5601 5606 5612 5617 5621 5626 5631 5637 5643 5650 5655 5662 5668 5674 5679 5683 5688 5691 5694 5697 5700 5702 5704 5705 5706 5707 5707 5706 5705 5701 5697 5693 5688
5539 5544 5549 5555 5561 5566 5569 5572 5577 5581 5587 5594 5600 5605 5611 5615 5619 5624 5631 5639 5644 5652 5659 5665 5670 5675 5679 5682 5686 5689 5692 5694 5696 5698 5699 5700 5700 5699 5698 5695 5691 5686 5682
5521 5526 5532 5538 5544 5550 5555 5559 5563 5568 5574 5580 5587 5593 5599 5604 5609 5613 5620 5627 5633 5641 5649 5656 5661 5666 5670 5674 5677 5680 5683 5686 5688 5690 5692 5692 5692 5692 5691 5688 5684 5680 5676
5502 5508 5514 5520 5526 5533 5539 5545 5550 5555 5561 5567 5574 5581 5587 5592 5597 5602 5609 5616 5623 5630 5638 5645 5652 5657 5661 5665 5668 5672 5675 5678 5681 5683 5684 5685 5685 5685 5684 5681 5678 5674 5671
5482 5488 5495 5502 5509 5517 5523 5528 5535 5542 5548 5554 5560 5567 5574 5580 5585 5590 5598 5605 5612 5619 5627 5634 5641 5647 5651 5656 5660 5663 5667 5670 5673 5675 5677 5678 5678 5678 5677 5674 5671 5668 5665
5460 5466 5474 5483 5491 5499 5507 5513 5519 5527 5534 5540 5547 5553 5560 5566 5573 5578 5585 5593 5601 5608 5615 5623 5629 5636 5641 5646 5650 5654 5658 5662 5665 5667 5669 5670 5671 5671 5669 5667 5664 5662 5659
5437 5443 5451 5460 5470 5478 5488 5496 5503 5511 5519 5526 5533 5540 5547 5553 5559 5566 5573 5582 5589 5596 5604 5611 5618 5624 5630 5635 5641 5646 5650 5654 5656 5659 5661 5662 5663 5663 5662 5660 5658 5655 5653
5413 5420 5428 5438 5447 5457 5467 5478 5487 5495 5504 5511 5519 5527 5533 5539 5547 5554 5562 5569 5576 5585 5593 5599 5606 5613 5620 5626 5631 5637 5641 5645 5647 5650 5652 5654 5655 5656 5654 5653 5651 5649 5647
5390 5396 5404 5414 5423 5434 5446 5457 5468 5478 5488 5497 5505 5513 5520 5526 5534 5542 5549 5555 5564 5574 5581 5588 5595 5603 5610 5617 5622 5627 5631 5635 5638 5641 5644 5646 5647 5648 5647 5646 5645 5643 5642
5368 5373 5380 5391 5400 5410 5423 5435 5448 5459 5471 5481 5491 5499 5506 5513 5521 5529 5537 5543 5551 5560 5569 5577 5586 5593 5599 5605 5612 5617 5621 5625 5629 5632 5635 5637 5639 5640 5639 5639 5638 5637 5635
5348 5352 5358 5366 5377 5388 5401 5413 5427 5441 5453 5464 5476 5485 5493 5502 5509 5515 5523 5531 5539 5548 5556 5565 5574 5582 5588 5594 5600 5605 5610 5614 5618 5622 5625 5628 5630 5631 5631 5631 5631 5631 5629
5329 5333 5337 5342 5353 5365 5379 5393 5407 5421 5434 5448 5460 5471 5479 5488 5495 5503 5511 5517 5523 5533 5541 5550 5559 5567 5574 5581 5587 5593 5598 5603 5608 5612 5616 5619 5621 5622 5623 5623 5623 5623 5623
5312 5315 5318 5324 5330 5341 5356 5373 5387 5401 5417 5432 5444 5456 5466 5474 5481 5490 5498 5505 5513 5520 5529 5538 5546 5554 5561 5569 5575 5581 5586 5592 5597 5602 5606 5609 5612 5613 5615 5615 5616 5615 5615
5297 5300 5304 5308 5313 5320 5334 5352 5368 5384 5400 5415 5428 5441 5452 5460 5468 5477 5485 5492 5500 5510 5517 5525 5534 5542 5550 5558 5564 5569 5575 5581 5586 5591 5596 5600 5602 5605 5607 5608 5608 5607 5607
5281 5285 5289 5293 5298 5303 5314 5332 5349 5366 5383 5399 5412 5426 5438 5447 5454 5463 5472 5481 5491 5501 5509 5517 5525 5532 5539 5545 5551 5557 5563 5569 5574 5580 5585 5590 5593 5596 5598 5599 5600 5600 5600
5265 5269 5272 5277 5283 5288 5297 5313 5332 5350 5367 5384 5398 5411 5424 5434 5443 5453 5463 5473 5480 5487 5495 5504 5511 5517 5524 5530 5537 5544 5551 5557 5563 5569 5575 5579 5583 5587 5589 5591 5592 5592 5592
5249 5253 5257 5261 5268 5273 5281 5297 5317 5335 5354 5370 5385 5398 5411 5422 5432 5442 5452 5461 5468 5474 5481 5489 5495 5502 5509 5517 5525 5531 5539 5545 5552 5558 5564 5568 5572 5575 5579 5582 5584 5584 5585
5235 5239 5242 5246 5252 5259 5268 5284 5305 5326 5344 5360 5374 5387 5399 5411 5421 5430 5440 5448 5455 5461 5467 5474 5481 5489 5497 5504 5512 5519 5526 5533 5540 5547 5552 5556 5560 5564 5569 5572 5575 5575 5576
5222 5225 5229 5234 5239 5247 5259 5277 5298 5317 5335 5351 5364 5377 5390 5402 5412 5420 5429 5436 5443 5449 5456 5462 5469 5476 5483 5492 5500 5506 5514 5521 5527 5532 5538 5544 5548 5553 5557 5561 5564 5565 5566
5210 5214 5218 5224 5232 5242 5257 5275 5294 5311 5328 5343 5356 5369 5381 5392 5401 5410 5419 5425 5430 5437 5445 5452 5459 5465 5472 5480 5488 5494 5501 5507 5514 5520 5526 5532 5537 5541 5545 5550 5553 5554 5555
5203 5208 5214 5221 5230 5244 5260 5276 5292 5308 5323 5337 5349 5361 5372 5382 5392 5400 5407 5414 5420 5427 5433 5440 5448 5454 5461 5468 5475 5482 5488 5494 5501 5508 5514 5519 5524 5529 5533 5538 5540 5542 5544
5205 5211 5219 5229 5240 5253 5266 5280 5294 5307 5320 5332 5343 5354 5364 5373 5382 5390 5397 5404 5410 5417 5423 5428 5435 5443 5450 5456 5463 5469 5475 5482 5488 5495 5501 5506 5512 5517 5522 5525 5528 5530 5533